Home > Weather > Dubai > Past weeks

Flag for United Arab Emirates Past Weather in Dubai, Dubai, United Arab Emirates — Yesterday and Last 2 Weeks

Now
93 °F

Clear.


Feels Like: 107 °F
Forecast: 92 / 102 °F
Wind: 12 mph from East

Location: Dubai International Airport

Current Time: Jun 29, 2016 at 6:00:12 AM

Latest Report: Jun 29, 2016 at 5:00 AM


Visibility: 10 mi

Pressure: 29.50 "Hg

Humidity: 59%

Dew Point: 77 °F

Location of DubaiLocation

Past Weather in Dubai — Graph

°F

Dubai Temperature Yesterday

Maximum temperature yesterday: 109 °F (at 11:00 AM)
Minimum temperature yesterday: 90 °F (at 5:00 AM)
Average temperature yesterday: 96 °F

High & Low Weather Summary for the Past Weeks

 TemperatureHumidityPressure
High113 °F (Jun 26, 12:00 PM)79% (Jun 15, 5:00 AM)29.62 "Hg (Jun 15, 5:00 AM)
Low81 °F (Jun 14, 5:00 AM)10% (Jun 17, 12:00 AM)29.39 "Hg (Jun 27, 4:00 PM)
Average96 °F42%29.50 "Hg
* Reported Jun 14 5:00 AM — Jun 29 5:00 AM, Dubai, Weather by CustomWeather, © 2016

Note: Actual official high and low records may vary slightly from our data, if they occured in-between our weather recording intervals... More about our weather records

Advertising

Dubai Weather History for the Previous 24 Hours

Scroll right to see more
 ConditionsComfort  
Time TempWeatherWind HumidityBarometerVisibility
5:00 AM
Wed, Jun 29
93 °FClear.12 mph59%29.50 "Hg10 mi
4:00 AM93 °FPassing clouds.12 mph59%29.47 "HgN/A
3:00 AM95 °FPassing clouds.12 mph47%29.47 "HgN/A
2:00 AM97 °FClear.9 mph47%29.45 "Hg10 mi
1:00 AM97 °FPassing clouds.6 mph50%29.47 "HgN/A
12:00 AM97 °FPassing clouds.6 mph53%29.47 "HgN/A
11:00 PM
Tue, Jun 28
95 °FPassing clouds.7 mph56%29.47 "HgN/A
10:00 PM95 °FPassing clouds.6 mph60%29.47 "HgN/A
9:00 PM95 °FClear.8 mph60%29.45 "Hg10 mi
8:00 PM95 °FClear.9 mph56%29.45 "Hg5 mi
7:00 PM97 °FClear.13 mph47%29.45 "Hg5 mi
6:00 PM97 °FClear.16 mph53%29.42 "Hg5 mi
5:00 PM99 °FClear.15 mph50%29.42 "Hg5 mi
4:00 PM99 °FClear.14 mph47%29.42 "Hg4 mi
3:00 PM99 °FClear.15 mph57%29.42 "Hg4 mi
2:00 PM97 °FDuststorm.13 mph67%29.42 "Hg3 mi
1:00 PM97 °FDuststorm.17 mph63%29.45 "Hg3 mi
12:00 PM102 °FPassing clouds.13 mph48%29.45 "HgN/A
11:00 AM109 °FPassing clouds.6 mph23%29.45 "HgN/A
10:00 AM104 °FPassing clouds.5 mph29%29.47 "HgN/A
9:00 AM100 °FSunny.7 mph29%29.45 "Hg10 mi
8:00 AM97 °FPassing clouds.5 mph30%29.45 "HgN/A
7:00 AM91 °FClear.3 mph46%29.45 "Hg5 mi
6:00 AM90 °FClear.5 mph49%29.42 "Hg5 mi
Weather by CustomWeather, © 2016

See weather overviewHow to use our weather pages